Preview of NWS' New Version of Forecast
This preview is not operational and should not be used for support decisions.

Regional Weather Roundup (RWR)

Issued by National Weather Service (NWS)

                            
000
ASUS43 KMKX 220510
RWRWI 

WISCONSIN REGIONAL WEATHER ROUNDUP
NATIONAL WEATHER SERVICE MILWAUKEE/SULLIVAN WI
1200 AM CDT MON APR 22 2019

NOTE: "FAIR" INDICATES FEW OR NO CLOUDS BELOW 12,000 FEET WITH NO
SIGNIFICANT WEATHER AND/OR OBSTRUCTIONS TO VISIBILITY.

WIZ001-002-006>008-014>016-023>028-220600-
NORTHWEST WISCONSIN
  
CITY           SKY/WX    TMP DP  RH WIND       PRES   REMARKS
SUPERIOR ARPT  CLOUDY    37  36  94 NE12G18   30.11S WCI  30          
ASHLAND        CLOUDY    39  39 100 NE12      30.10F WCI  32          
HAYWARD        RAIN      41  40  96 NE7       30.02F FOG              
SIREN          LGT RAIN  42  40  93 NE8       30.02R                  
CUMBERLAND     CLOUDY    43  37  81 NE12      29.97S                  
RICE LAKE      CLOUDY    47  40  78 N8        29.98S                  
CHETEK         MOCLDY    46  38  74 NE8       29.96S                  
LADYSMITH      FAIR      45  38  79 NE16G24   30.01S                  
EAU CLAIRE     FAIR      51  39  63 NE13G20   29.92R                  
MENOMONIE      FAIR      48  36  61 N14       29.93R                  
NEW RICHMOND   FAIR      47  39  74 NE10      29.95S                  
OSCEOLA        MOCLDY    47  41  81 NE13      29.98F                  
$$
 
WIZ003>005-009-010-017-018-220600-
NORTH CENTRAL WISCONSIN
  
CITY           SKY/WX    TMP DP  RH WIND       PRES   REMARKS
MANITOWISH WTR HVY RAIN  39  39 100 N8        30.07R WCI  34          
ARBOR VITAE    CLOUDY    42  40  93 N7        30.06R                  
WOODRUFF       CLOUDY    42  40  93 N7        30.06R                  
RHINELANDER    CLOUDY    45  33  63 NE8G18    30.03R                  
EAGLE RIVER    RAIN      39  39  98 E8        30.05F WCI  34          
LAND O LAKES   RAIN      39  38  95 E6        30.09S                  
PHILLIPS       CLOUDY    41  40  95 N13G18    30.06R                  
TOMAHAWK       MOCLDY    44  31  60 NE6       30.02S                  
MEDFORD        CLOUDY    50  36  58 NE14G20   29.96R                  
MERRILL        CLOUDY    49  35  59 E12       30.00R                  
$$
 
WIZ029-030-035-036-043>047-220600-
CENTRAL WISCONSIN
  
CITY           SKY/WX    TMP DP  RH WIND       PRES   REMARKS
WAUSAU         NOT AVBL                                               
MOSINEE        CLOUDY    50  37  62 E9        29.97R                  
MARSHFIELD     FAIR      54  42  64 E12       29.93R                  
STEVENS POINT  FAIR      51  37  58 E8        29.96S                  
WAUPACA        FAIR      55  39  56 NE3       29.97R                  
WAUTOMA        FAIR      68  44  42 S9        29.94R                  
WISC RAPIDS    FAIR      60  42  51 E7        29.94R                  
CAMP DOUGLAS   FAIR      68  45  42 S7        29.90R                  
$$
 
WIZ011>013-019>022-031-037>040-048>050-220600-
NORTHEAST WISCONSIN
  
CITY           SKY/WX    TMP DP  RH WIND       PRES   REMARKS
ANTIGO         FAIR      44  34  67 NE13      30.02R                  
SHAWANO        FAIR      50  37  59 NE10      30.01R                  
OCONTO         FAIR      46  32  60 NE8       30.03R                  
STURGEON BAY   FAIR      46  32  58 NE8       30.03R                  
GREEN BAY      FAIR      52  40  63 N9        29.99R                  
MANITOWOC      FAIR      51  37  58 SE7       29.99S                  
APPLETON       FAIR      59  34  38 SE5       29.96R                  
CLINTONVILLE   FAIR      49  35  56 NE13      29.99R                  
OSHKOSH        FAIR      60  44  55 S5        29.95R                  
$$
 
WIZ032>034-041-042-053>061-220600-
SOUTHWEST WISCONSIN
  
CITY           SKY/WX    TMP DP  RH WIND       PRES   REMARKS
LA CROSSE      FAIR      72  44  36 S15       29.86S                  
SPARTA         FAIR      71  45  39 S9G16     29.89S                  
VIROQUA        FAIR      68  46  45 S14       29.91S                  
BOSCOBEL       FAIR      70  44  39 MISG      29.92S                  
PRAIRIE DU CHI FAIR      71  40  32 SE7       29.91R                  
PLATTEVILLE    FAIR      63  47  56 SE10      29.97R                  
$$

WIZ056-057-062-063-064-067-068-220600-
SOUTH CENTRAL WISCONSIN
  
CITY           SKY/WX    TMP DP  RH WIND       PRES   REMARKS
REEDSBURG      FAIR      67  44  43 S8        29.94R                  
BARABOO/DELLS  FAIR      65  41  41 S14       29.94R                  
LONE ROCK      FAIR      67  44  43 S10       29.94S                  
MINERAL POINT  FAIR      64  45  48 S9        29.97R                  
MADISON        FAIR      65  42  43 MISG      29.97S                  
MIDDLETON      FAIR      67  42  39 S12       29.97F                  
WATERTOWN      FAIR      64  43  45 S10       29.98S                  
MONROE         FAIR      64  41  43 MISG      29.98S                  
JANESVILLE     FAIR      63  41  45 S8        30.00S                  
$$
 
WIZ051-052-058>065-066-070>072-220600-
SOUTHEAST WISCONSIN
  
CITY           SKY/WX    TMP DP  RH WIND       PRES   REMARKS
MILWAUKEE      MOCLDY    59  38  45 S9        30.02S                  
WAUKESHA       FAIR      61  37  41 S8        30.01F                  
MILWAUKEE/TIMM FAIR      61  32  33 S9        30.01F                  
RACINE         FAIR      59  38  45 S12       30.04S                  
KENOSHA        FAIR      62  40  44 S10       30.02F                  
FOND DU LAC    FAIR      62  43  49 S9        29.96S                  
SHEBOYGAN      FAIR      52  36  54 S8        29.99F                  
WEST BEND      FAIR      61  36  39 S6        29.99F                  
JUNEAU         FAIR      64  43  46 S13       29.99R                  
$$

LSZ147-162-220600-
LAKE SUPERIOR
  
STATION/POSITION TIME  TEMP    WIND        PRES    WAVE
                       AIR SEA DIR/SP/G            HT/PER
                 (UTC) (F)     (DEG/KT/KT) (MB)    (FT/S)
$$
 
LMZ867-665-643>646-220600-
LAKE MICHIGAN
  
STATION/POSITION TIME  TEMP    WIND        PRES    WAVE
                       AIR SEA DIR/SP/G            HT/PER
                 (UTC) (F)     (DEG/KT/KT) (MB)    (FT/S)
NORTHPORT PIER   0440   40     320/  4/  4 1017.9S
KEWAUNEE LAKESHO 0436   42     110/  8/  9 1015.1F
SHEBOYGAN LAKESH 0500   44     180/ 18/ 20 1016.1F
MILWAUKEE LAKESH 0450   47                   N/A
KENOSHA   LAKESH 0500   50     180/ 12/ 18 1016.9
$$

TC  - TEMPERATURE IN CELSIUS
VSB - VISIBILITY IN STATUTE MILES
WCI - WIND CHILL INDEX
HX  - HEAT INDEX